TimeCST,TemperatureF,Dew PointF,Humidity,Sea Level PressureIn,VisibilityMPH,Wind Direction,Wind SpeedMPH,Gust SpeedMPH,PrecipitationIn,Events,Conditions,WindDirDegrees,DateUTC
12:53 AM,51.1,34.0,52,29.73,10.0,South,12.7,-,N/A,,Clear,170,2013-02-18 06:53:00
1:53 AM,48.0,32.0,54,29.73,10.0,South,11.5,-,N/A,,Clear,170,2013-02-18 07:53:00
2:53 AM,48.0,27.0,44,29.73,10.0,WSW,5.8,-,N/A,,Clear,240,2013-02-18 08:53:00
3:53 AM,48.9,21.9,35,29.73,10.0,SW,3.5,-,N/A,,Clear,220,2013-02-18 09:53:00
4:53 AM,48.0,19.9,33,29.75,10.0,SW,11.5,-,N/A,,Clear,220,2013-02-18 10:53:00
6:53 AM,46.0,16.0,30,29.84,10.0,WNW,8.1,-,N/A,,Clear,290,2013-02-18 12:53:00
7:53 AM,55.0,10.0,17,29.86,10.0,WNW,17.3,24.2,N/A,,Clear,290,2013-02-18 13:53:00
8:53 AM,60.1,9.0,13,29.90,10.0,WNW,16.1,21.9,N/A,,Clear,290,2013-02-18 14:53:00
9:53 AM,63.0,8.1,11,29.92,10.0,WNW,23.0,31.1,N/A,,Clear,290,2013-02-18 15:53:00
10:53 AM,64.9,6.1,10,29.93,8.0,WNW,31.1,39.1,N/A,,Clear,290,2013-02-18 16:53:00
11:53 AM,66.9,3.0,8,29.94,10.0,WNW,25.3,38.0,N/A,,Clear,300,2013-02-18 17:53:00
12:53 PM,68.0,1.9,7,29.93,10.0,WNW,19.6,32.2,N/A,,Clear,290,2013-02-18 18:53:00
1:53 PM,70.0,-0.9,6,29.90,10.0,NW,20.7,28.8,N/A,,Clear,320,2013-02-18 19:53:00
2:53 PM,69.1,-0.9,6,29.89,10.0,NW,20.7,26.5,N/A,,Clear,320,2013-02-18 20:53:00
3:53 PM,71.1,1.0,6,29.88,10.0,NW,16.1,21.9,N/A,,Clear,310,2013-02-18 21:53:00
4:53 PM,70.0,1.0,7,29.89,10.0,NNW,9.2,-,N/A,,Clear,340,2013-02-18 22:53:00
5:53 PM,68.0,1.9,7,29.90,10.0,North,5.8,-,N/A,,Clear,350,2013-02-18 23:53:00
6:53 PM,60.1,3.9,11,29.94,10.0,NNE,4.6,-,N/A,,Clear,20,2013-02-19 00:53:00
7:53 PM,54.0,7.0,15,29.96,10.0,ESE,4.6,-,N/A,,Clear,120,2013-02-19 01:53:00
8:53 PM,52.0,12.9,21,29.98,10.0,East,10.4,-,N/A,,Clear,80,2013-02-19 02:53:00
9:53 PM,48.9,15.1,26,29.99,10.0,East,8.1,-,N/A,,Clear,100,2013-02-19 03:53:00
10:53 PM,50.0,16.0,26,30.00,10.0,SE,6.9,-,N/A,,Clear,130,2013-02-19 04:53:00
11:53 PM,46.9,16.0,29,30.01,10.0,SE,6.9,-,N/A,,Clear,130,2013-02-19 05:53:00